STARLETTE

Last updated on Wed Aug 19 2026 00:03:36 GMT+0000 (Coordinated Universal Time)

1 07646U 75010A 26230.47906856 -.00000137 00000+0 25216-5 0 9996 2 07646 49.8231 218.7168 0205753 268.8447 88.8868 13.82351464603154
UTC large
Height (km)
Speed (km/s)
/
Latitude / Longitude
Inclination (degrees)
Orbital Period (minutes)
Azimuth
Elevation
Range (km)
Doppler Factor

Next 0 passes for location: London (51.5072 / 0.1276)

No passes found over London.
STARLETTE